FENGYUN 3B 1 37214U 10059A 21061.47855329 .00000022 00000-0 34595-4 0 9999 2 37214 99.0726 53.5426 0015963 256.0583 103.8801 14.15977571534190 CZ-4C R/B 1 37215U 10059B 21061.66174263 .00000017 00000-0 18359-4 0 9996 2 37215 98.7987 201.5438 0087431 263.7878 95.3347 14.46317032544910 CZ-4C DEB 1 38293U 10059C 21060.88735601 -.00000013 00000-0 12922-4 0 9992 2 38293 98.8130 120.1125 0011996 159.4060 200.7606 14.28683772530039 CZ-4C DEB 1 38294U 10059D 21060.69846593 .00000060 00000-0 86697-4 0 9996 2 38294 98.6348 62.1354 0264643 254.6332 102.5437 13.71650400503824 CZ-4C DEB 1 38295U 10059E 21059.20515226 .00000083 00000-0 10987-3 0 9991 2 38295 98.6537 52.1716 0271884 291.0527 126.7668 13.69367033403481 CZ-4C DEB 1 38296U 10059F 21060.87784009 .00000117 00000-0 13070-3 0 9998 2 38296 98.7269 109.5934 0245655 205.3905 153.5010 13.75290496513092 CZ-4C DEB 1 38297U 10059G 21061.54491413 .00000080 00000-0 98153-4 0 9993 2 38297 98.6791 100.1635 0243372 182.8002 177.1803 13.75889223513384